[[{"header":{"parameterUnit":"m.s-1","parameterCategory":1,"la1":30.2991,"la2":30.254,"lo1":-89.0895,"lo2":-89.0444,"dy":0.0017,"dx":0.0017,"nx":28,"ny":28,"refTime":"2025-02-03T03:00:00:Z","depth":0,"parameterNumber":2,"parameterNumberName":"U-component_of_WINDS"},"data":[0,0,0,0,0,0,0,0,0,0,0,0,0,0,0,0,0,0,0,0,0,0,0,0,0,0,0,0,0,0,0,0,0,0,0,0,0,0,0,0,0,0,0,0,0,0,0,0,0,0,0,0,0,0,0,0,0,0,-1.9493,-1.9493,0,-1.9506,-1.9506,-1.9506,-1.9448,-1.9446,-1.9444,-1.9443,-1.9456,-1.9458,-1.946,0,0,0,0,0,0,0,0,0,0,0,0,0,-1.9419,-1.942,-1.9493,-1.9493,-1.9493,-1.9506,-1.9506,-1.9506,-1.9448,-1.9446,-1.9444,-1.9442,-1.9455,-1.9458,-1.946,0,0,0,0,0,0,0,0,0,0,0,0,0,-1.9443,-1.9421,-1.9493,-1.9466,-1.9464,-1.9506,-1.9506,-1.9506,-1.9449,-1.9446,-1.9443,-1.9441,-1.9455,-1.9457,-1.946,-1.9529,0,0,-1.9469,-1.947,0,0,0,0,0,0,0,0,-1.9442,-1.9446,-1.947,-1.9468,-1.9465,-1.9473,-1.9485,-1.9514,-1.9449,-1.9454,-1.9443,-1.944,-1.9464,-1.9466,-1.9474,-1.953,-1.9531,-1.9469,-1.9471,-1.9472,-1.9473,0,0,0,0,0,0,0,-1.944,-1.9445,-1.9498,-1.947,-1.9468,-1.9453,-1.9454,-1.949,-1.9473,-1.9454,-1.9449,-1.9452,-1.9462,-1.9471,-1.9474,-1.9531,-1.9469,-1.9472,-1.9474,-1.9475,-1.9644,-1.9647,0,0,0,0,0,0,-1.9442,-1.9444,-1.9498,-1.9499,-1.9447,-1.9457,-1.9457,-1.9473,-1.9473,-1.947,-1.9454,-1.9449,-1.9467,-1.947,-1.9474,-1.9554,-1.9472,-1.9475,-1.9477,-1.9641,-1.9645,-1.9648,0,0,0,0,0,0,-1.9441,-1.9447,-1.9497,-1.947,-1.9475,-1.9461,-1.9479,-1.9475,-1.9483,-1.9473,-1.947,-1.9466,-1.9465,-1.947,-1.9516,-1.9554,-1.9476,-1.9479,-1.9638,-1.9642,-1.9646,-1.9715,0,0,0,0,0,0,-1.9439,-1.9447,-1.9473,-1.9471,-1.9477,-1.9539,-1.9481,-1.9477,-1.9489,-1.9482,-1.9483,-1.9481,-1.9464,-1.9512,-1.9519,-1.9556,-1.9481,-1.9635,-1.964,-1.9645,-1.971,-1.9721,-1.9731,0,0,0,0,0,-1.9436,-1.9492,-1.9475,-1.9482,-1.9509,-1.9541,-1.9545,-1.9524,-1.9492,-1.9518,-1.9511,-1.9481,-1.9549,-1.9517,-1.9524,-1.9563,-1.9632,-1.9639,-1.9645,-1.9705,-1.9719,-1.9731,0,0,0,0,0,0,-1.9499,-1.9491,-1.9472,-1.9529,-1.9536,-1.9532,-1.9563,-1.9539,-1.9556,-1.9549,-1.9522,-1.9523,-1.9574,-1.9573,-1.9538,-1.963,-1.9585,-1.9593,-1.9628,-1.9642,-1.9653,-1.9651,-1.9484,0,0,0,0,0,-1.9519,-1.9546,-1.9538,-1.9589,-1.9594,-1.9579,-1.9592,-1.9575,-1.9581,-1.9584,-1.9581,-1.9588,-1.9611,-1.9627,-1.9647,-1.971,-1.9709,-1.974,-1.9751,-1.976,-1.9767,-1.98,-1.9813,-1.9668,-1.9668,-1.9668,0,0,-1.9562,-1.9561,-1.9579,-1.9602,-1.9605,-1.9634,-1.9581,-1.9613,-1.9634,-1.9589,-1.9632,-1.963,-1.9637,-1.9692,-1.9716,-1.9693,-1.9807,-1.9768,-1.9775,-1.9777,-1.9808,-1.9821,-1.9834,-1.9672,-1.9672,-1.9671,0,0,-1.9653,-1.9656,-1.9698,-1.9703,-1.9709,-1.9699,-1.9709,-1.9708,-1.9705,-1.9748,-1.9715,-1.9739,-1.978,-1.9786,-1.9794,-1.9889,-1.9862,-1.9896,-1.9953,-1.9985,-1.9996,-2.0006,-2.0039,-2.0052,-1.9904,-1.9904,-1.9904,0,-1.9704,-1.9746,-1.9723,-1.9757,-1.9768,-1.9729,-1.9772,-1.9778,-1.9791,-1.9799,-1.9773,-1.9823,-1.9825,-1.988,-1.9903,-1.9912,-1.9922,-1.9895,-1.9997,-2.0007,-2.0015,-2.0047,-2.0059,-1.9908,-1.9907,-1.9907,-1.9907,0,-1.9809,-1.9838,-1.9871,-1.9885,-1.99,-1.9938,-1.9921,-1.9939,-1.9921,-1.9914,-1.9958,-1.9959,-1.9979,-1.9991,-1.9974,-2.0045,-2.003,-2.0001,-1.9955,-2.0034,-2.0063,-2.0074,-1.9914,-1.9912,-1.9911,-1.991,0,0,-1.9938,-1.9939,-1.9952,-1.9957,-1.9962,-1.9984,-2.0021,-2.0041,-2.0056,-2.0067,-2.0097,-2.0132,-2.0106,-2.0115,-2.0099,-2.0128,-2.0202,-2.0095,-2.0095,-2.0114,-2.0279,-2.0299,-2.0314,-2.0185,-2.0187,-2.0189,-2.0278,0,-2.0027,-2.0089,-2.007,-2.0133,-2.016,-2.0124,-2.0156,-2.0163,-2.0157,-2.0179,-2.0172,-2.0197,-2.0161,-2.0166,-2.0193,-2.0187,-2.0234,-2.0181,-2.0212,-2.0213,-2.021,-2.0329,-2.0351,-2.0435,-2.0289,-2.0291,-2.0292,0,-2.0138,-2.0153,-2.0219,-2.0219,-2.023,-2.0259,-2.0275,-2.0297,-2.0304,-2.0298,-2.0309,-2.0287,-2.0323,-2.0279,-2.0328,-2.0292,-2.0304,-2.0303,-2.0306,-2.0307,-2.0257,-2.0332,-2.0461,-2.0473,-2.031,-2.0309,-2.0307,0,-2.0224,-2.0261,-2.0305,-2.0312,-2.0314,-2.0335,-2.0337,-2.0341,-2.0354,-2.0369,-2.0377,-2.0396,-2.0406,-2.0422,-2.0405,-2.0374,-2.0458,-2.0411,-2.0453,-2.0453,-2.0471,-2.0469,-2.0602,-2.0481,-2.0481,-2.048,-2.048,0,-2.0324,-2.0366,-2.0344,-2.0371,-2.0417,-2.0395,-2.0441,-2.0439,-2.0443,-2.0469,-2.044,-2.0465,-2.0442,-2.0466,-2.0453,-2.0496,-2.0501,-2.0497,-2.0493,-2.0499,-2.0499,-2.0505,-2.0498,-2.0484,-2.0483,-2.0482,-2.0482,0,-2.0428,-2.0415,-2.0461,-2.0459,-2.046,-2.0494,-2.0492,-2.0517,-2.051,-2.0543,-2.055,-2.0538,-2.0564,-2.0549,-2.0576,-2.0568,-2.0623,-2.0612,-2.062,-2.0617,-2.0659,-2.0655,-2.0799,-2.0816,-2.0685,-2.0686,-2.0687,0,-2.0492,-2.0523,-2.0525,-2.054,-2.0544,-2.0569,-2.0582,-2.0563,-2.0578,-2.0588,-2.0612,-2.0636,-2.0653,-2.0696,-2.069,-2.071,-2.0698,-2.0748,-2.0701,-2.0706,-2.0698,-2.0696,-2.0698,-2.0756,-2.0758,-2.0759,-2.076,0,-2.0607,-2.0599,-2.0619,-2.0638,-2.0654,-2.0668,-2.0679,-2.0693,-2.0674,-2.0692,-2.0718,-2.0732,-2.0759,-2.0783,-2.08,-2.0802,-2.0778,-2.0775,-2.0786,-2.0791,-2.0795,-2.0792,-2.0644,-2.0772,-2.077,-2.077,-2.0769,-2.0769,-2.0691,-2.0717,-2.0723,-2.0746,-2.0753,-2.0764,-2.0787,-2.0783,-2.0804,-2.0825,-2.0812,-2.0843,-2.0849,-2.087,-2.0876,-2.0899,-2.0879,-2.0895,-2.0899,-2.0902,-2.0907,-2.0792,-2.0903,-2.0902,-2.0902,-2.0902,-2.0901,0,-2.0803,-2.0805,-2.0827,-2.0844,-2.0862,-2.0839,-2.085,-2.0867,-2.0894,-2.0903,-2.0921,-2.0951,-2.0974,-2.097,-2.0991,-2.101,-2.1,-2.1016,-2.1014,-2.1015,-2.0925,-2.0913,-2.1024,-2.1024,-2.1024,-2.1024,-2.1024,-2.1024,-2.0864,-2.0906,-2.0899,-2.0944,-2.0946,-2.0976,-2.0984,-2.0994,-2.1001,-2.1036,-2.1054,-2.1052,-2.1055,-2.1076,-2.1096,-2.1095,-2.1103,-2.1124,-2.1118,-2.1033,-2.1021,-2.1009,-2.0998,-2.1126,-2.1126,-2.1206,-2.1206,-2.1207]},{"header":{"parameterUnit":"m.s-1","parameterCategory":1,"la1":30.2991,"la2":30.254,"lo1":-89.0895,"lo2":-89.0444,"dy":0.0017,"dx":0.0017,"nx":28,"ny":28,"refTime":"2025-02-03T03:00:00:Z","depth":0,"parameterNumber":3,"parameterNumberName":"V-component_of_WINDS"},"data":[0,0,0,0,0,0,0,0,0,0,0,0,0,0,0,0,0,0,0,0,0,0,0,0,0,0,0,0,0,0,0,0,0,0,0,0,0,0,0,0,0,0,0,0,0,0,0,0,0,0,0,0,0,0,0,0,0,0,0.8977,0.8977,0,0.9019,0.902,0.902,0.906,0.9061,0.9061,0.9062,0.9105,0.9105,0.9106,0,0,0,0,0,0,0,0,0,0,0,0,0,0.8932,0.8932,0.8977,0.8977,0.8978,0.9019,0.902,0.902,0.906,0.9061,0.9062,0.9062,0.9104,0.9105,0.9106,0,0,0,0,0,0,0,0,0,0,0,0,0,0.896,0.8932,0.8977,0.9003,0.9006,0.9019,0.902,0.902,0.906,0.9061,0.9062,0.9062,0.9104,0.9105,0.9106,0.9097,0,0,0.9109,0.911,0,0,0,0,0,0,0,0,0.8959,0.8962,0.8998,0.9001,0.9004,0.9035,0.9019,0.9046,0.906,0.9039,0.9062,0.9063,0.9081,0.9084,0.909,0.9099,0.9101,0.9109,0.911,0.911,0.911,0,0,0,0,0,0,0,0.8956,0.896,0.8994,0.8999,0.9002,0.9013,0.9018,0.9025,0.9055,0.9041,0.9044,0.9049,0.9083,0.9089,0.9091,0.9101,0.9109,0.911,0.9111,0.9111,0.9107,0.9107,0,0,0,0,0,0,0.895,0.8958,0.8992,0.8995,0.8983,0.9013,0.9019,0.9025,0.9055,0.9061,0.9048,0.9051,0.9087,0.909,0.9093,0.9086,0.911,0.9111,0.9112,0.9108,0.9107,0.9106,0,0,0,0,0,0,0.8949,0.8953,0.899,0.8977,0.8983,0.9013,0.9019,0.9025,0.9031,0.9061,0.9066,0.9049,0.9088,0.9092,0.9096,0.9088,0.9112,0.9112,0.9109,0.9108,0.9107,0.9071,0,0,0,0,0,0,0.8948,0.8952,0.8949,0.8977,0.8984,0.8992,0.9019,0.9025,0.9033,0.9037,0.9063,0.9068,0.9089,0.9095,0.9097,0.909,0.9113,0.911,0.9108,0.9107,0.9073,0.9069,0.9065,0,0,0,0,0,0.8946,0.8936,0.8948,0.8952,0.898,0.8992,0.8996,0.902,0.9032,0.9029,0.9049,0.9067,0.9088,0.9095,0.9098,0.9091,0.911,0.9109,0.9107,0.9074,0.9069,0.9065,0,0,0,0,0,0,0.8905,0.894,0.8954,0.8953,0.8969,0.8999,0.8995,0.9013,0.9026,0.9029,0.9058,0.9064,0.9065,0.9079,0.9085,0.9085,0.9102,0.9101,0.9076,0.9071,0.9068,0.9065,0.9114,0,0,0,0,0,0.8896,0.8903,0.8934,0.893,0.8937,0.8965,0.8971,0.8989,0.9006,0.9013,0.9033,0.9049,0.906,0.9066,0.9078,0.9075,0.9082,0.9072,0.9068,0.9065,0.9063,0.9065,0.9061,0.9101,0.9101,0.9101,0,0,0.8878,0.8898,0.89,0.8922,0.8937,0.8944,0.897,0.8976,0.8982,0.9014,0.902,0.9035,0.9056,0.9057,0.9059,0.9068,0.9054,0.9063,0.906,0.906,0.9063,0.9059,0.9056,0.91,0.9101,0.9101,0,0,0.8847,0.8863,0.8862,0.8877,0.8899,0.8918,0.8918,0.8945,0.8956,0.8963,0.8988,0.8996,0.9013,0.9027,0.9037,0.9015,0.9033,0.9017,0.8997,0.8998,0.8995,0.8993,0.8986,0.8983,0.9016,0.9016,0.9016,0,0.8821,0.8833,0.8859,0.8865,0.8874,0.8905,0.8905,0.8918,0.8942,0.8949,0.8959,0.8983,0.8999,0.9005,0.9,0.9006,0.9008,0.9015,0.8993,0.8991,0.8989,0.8983,0.8981,0.9014,0.9014,0.9015,0.9015,0,0.88,0.8808,0.8805,0.8829,0.8839,0.8841,0.8869,0.8875,0.8893,0.8911,0.8918,0.8939,0.8956,0.8959,0.8975,0.8968,0.8973,0.8988,0.9006,0.8983,0.8978,0.8976,0.9011,0.9012,0.9013,0.9013,0,0,0.8744,0.8785,0.8783,0.8796,0.8824,0.883,0.8835,0.8853,0.8858,0.8874,0.888,0.8895,0.891,0.8921,0.8939,0.894,0.8924,0.8955,0.8956,0.895,0.8919,0.8908,0.8905,0.8936,0.8936,0.8935,0.8918,0,0.872,0.873,0.8755,0.8758,0.8767,0.8797,0.8801,0.8819,0.8837,0.8847,0.8866,0.8877,0.8895,0.8902,0.8905,0.8925,0.8918,0.8927,0.8942,0.8942,0.8937,0.8902,0.8891,0.8873,0.8916,0.8916,0.8915,0,0.8692,0.8708,0.8712,0.8741,0.8746,0.8749,0.8768,0.8777,0.8799,0.8812,0.8825,0.8846,0.8854,0.887,0.8882,0.8888,0.8896,0.8907,0.8907,0.891,0.8928,0.8905,0.8868,0.8865,0.8912,0.8913,0.8913,0,0.8652,0.8675,0.868,0.869,0.8724,0.8726,0.874,0.8763,0.8772,0.8789,0.8796,0.8813,0.8823,0.8836,0.8861,0.8871,0.8871,0.8889,0.8883,0.8882,0.8881,0.8881,0.8846,0.8885,0.8885,0.8885,0.8885,0,0.8623,0.8624,0.8664,0.8667,0.867,0.87,0.8702,0.8719,0.874,0.8748,0.8775,0.8782,0.8815,0.8826,0.8846,0.8854,0.8857,0.8869,0.8874,0.8867,0.8866,0.8873,0.8875,0.8885,0.8885,0.8885,0.8885,0,0.8579,0.8605,0.8614,0.8646,0.8654,0.8655,0.8683,0.8689,0.8708,0.8718,0.8723,0.8754,0.8769,0.8795,0.8817,0.8831,0.8835,0.8844,0.8828,0.8832,0.8824,0.8825,0.8792,0.879,0.883,0.8829,0.8829,0,0.8558,0.8561,0.8594,0.8601,0.8615,0.8626,0.8637,0.8667,0.8676,0.8703,0.8705,0.8722,0.8737,0.876,0.8785,0.8803,0.8813,0.88,0.8815,0.8809,0.8814,0.8814,0.8815,0.8797,0.8796,0.8796,0.8795,0,0.852,0.8533,0.8547,0.8566,0.8578,0.8594,0.8612,0.8617,0.8651,0.8661,0.8677,0.8689,0.8713,0.873,0.8751,0.8767,0.8787,0.879,0.879,0.8783,0.8774,0.878,0.882,0.8791,0.8791,0.8792,0.8792,0.8792,0.8488,0.8492,0.8517,0.8532,0.8549,0.8565,0.8572,0.8594,0.8608,0.8629,0.8646,0.8661,0.8685,0.8717,0.8731,0.8744,0.8753,0.8752,0.8752,0.8752,0.8749,0.8772,0.8748,0.8748,0.8748,0.8748,0.8748,0,0.8452,0.847,0.8483,0.8508,0.8521,0.8539,0.856,0.8569,0.8583,0.8603,0.8618,0.8638,0.8655,0.8682,0.8702,0.8707,0.8717,0.8711,0.8712,0.8715,0.8739,0.8738,0.8703,0.8703,0.8703,0.8703,0.8703,0.8703,0.8435,0.8443,0.846,0.8478,0.8496,0.8511,0.8522,0.8538,0.8555,0.8575,0.859,0.8608,0.8631,0.8654,0.8671,0.8678,0.8685,0.8677,0.8687,0.8709,0.8713,0.8717,0.8717,0.8677,0.8677,0.8662,0.8662,0.8662]}]]